Hourly Weather Dadunqiu

Today, 17 April, Saturday

Time Temperature Precipitation Wind Pressure Humidity
00:00 +8°C° 0 mm 4 mps 763 mmHg 14%
01:00 +7°C° 0 mm 4 mps 763 mmHg 15%
02:00 +7°C° 0 mm 4 mps 763 mmHg 16%
03:00 +7°C° 0 mm 4 mps 763 mmHg 16%
04:00 +6°C° 0 mm 4 mps 764 mmHg 17%
05:00 +6°C° 0 mm 5 mps 764 mmHg 17%
06:00 +8°C° 0 mm 6 mps 764 mmHg 16%
07:00 +9°C° 0 mm 7 mps 765 mmHg 16%
08:00 +11°C° 0 mm 8 mps 765 mmHg 16%
09:00 +12°C° 0 mm 8 mps 765 mmHg 15%
10:00 +13°C° 0 mm 8 mps 765 mmHg 13%
11:00 +16°C° 0 mm 8 mps 765 mmHg 12%
12:00 +17°C° 0 mm 8 mps 764 mmHg 11%
13:00 +18°C° 0 mm 7 mps 763 mmHg 10%
14:00 +20°C° 0 mm 6 mps 763 mmHg 9%
15:00 +20°C° 0 mm 6 mps 762 mmHg 9%
16:00 +20°C° 0 mm 5 mps 762 mmHg 8%
17:00 +20°C° 0 mm 5 mps 762 mmHg 8%
18:00 +18°C° 0 mm 4 mps 762 mmHg 9%
19:00 +17°C° 0 mm 3 mps 763 mmHg 11%
20:00 +15°C° 0 mm 2 mps 763 mmHg 12%
21:00 +14°C° 0 mm 2 mps 763 mmHg 13%
22:00 +13°C° 0 mm 2 mps 764 mmHg 14%
23:00 +12°C° 0 mm 2 mps 764 mmHg 14%

Tomorrow, 18 April, Sunday

Time Temperature Precipitation Wind Pressure Humidity
00:00 +12°C° 0 mm 2 mps 764 mmHg 15%
01:00 +10°C° 0 mm 2 mps 764 mmHg 15%
02:00 +10°C° 0 mm 2 mps 764 mmHg 15%
03:00 +10°C° 0 mm 2 mps 764 mmHg 16%
04:00 +9°C° 0 mm 2 mps 764 mmHg 16%
05:00 +9°C° 0 mm 2 mps 764 mmHg 17%
06:00 +12°C° 0 mm 2 mps 764 mmHg 16%
07:00 +13°C° 0 mm 1 mps 764 mmHg 15%
08:00 +15°C° 0 mm 1 mps 764 mmHg 14%
09:00 +18°C° 0 mm 2 mps 763 mmHg 13%
10:00 +20°C° 0 mm 3 mps 763 mmHg 12%
11:00 +22°C° 0 mm 4 mps 762 mmHg 11%
12:00 +25°C° 0 mm 4 mps 761 mmHg 10%
13:00 +26°C° 0 mm 5 mps 760 mmHg 10%
14:00 +27°C° 0 mm 5 mps 759 mmHg 9%
15:00 +27°C° 0 mm 5 mps 759 mmHg 9%
16:00 +27°C° 0 mm 5 mps 758 mmHg 9%
17:00 +27°C° 0 mm 6 mps 758 mmHg 9%
18:00 +25°C° 0 mm 5 mps 758 mmHg 11%
19:00 +22°C° 0 mm 4 mps 758 mmHg 14%
20:00 +20°C° 0 mm 3 mps 758 mmHg 16%
21:00 +19°C° 0 mm 4 mps 758 mmHg 17%
22:00 +19°C° 0 mm 5 mps 758 mmHg 19%
23:00 +19°C° 0 mm 6 mps 758 mmHg 21%

Day after tomorrow, 19 April, Monday

Time Temperature Precipitation Wind Pressure Humidity
00:00 +17°C° 0 mm 5 mps 758 mmHg 24%
01:00 +16°C° 0 mm 5 mps 758 mmHg 27%
02:00 +15°C° 0 mm 5 mps 757 mmHg 30%
03:00 +14°C° 0 mm 4 mps 758 mmHg 33%
04:00 +13°C° 0 mm 3 mps 758 mmHg 37%
05:00 +12°C° 0 mm 3 mps 758 mmHg 40%
06:00 +14°C° 0 mm 3 mps 758 mmHg 38%
07:00 +16°C° 0 mm 3 mps 758 mmHg 36%
08:00 +18°C° 0 mm 3 mps 758 mmHg 34%
09:00 +20°C° 0 mm 3 mps 758 mmHg 29%
10:00 +24°C° 0 mm 3 mps 758 mmHg 25%
11:00 +26°C° 0 mm 3 mps 758 mmHg 20%
12:00 +28°C° 0 mm 3 mps 757 mmHg 18%
13:00 +29°C° 0 mm 3 mps 757 mmHg 15%
14:00 +31°C° 0 mm 2 mps 756 mmHg 13%
15:00 +31°C° 0 mm 2 mps 756 mmHg 12%
16:00 +31°C° 0 mm 2 mps 756 mmHg 12%
17:00 +31°C° 0 mm 2 mps 755 mmHg 12%
18:00 +29°C° 0 mm 3 mps 756 mmHg 16%
19:00 +27°C° 0 mm 3 mps 756 mmHg 19%
20:00 +25°C° 0 mm 3 mps 757 mmHg 22%
21:00 +24°C° 0 mm 3 mps 757 mmHg 26%
22:00 +22°C° 0 mm 4 mps 757 mmHg 29%
23:00 +21°C° 0 mm 4 mps 758 mmHg 33%

20 April, Tuesday

Time Temperature Precipitation Wind Pressure Humidity
00:00 +21°C° 0 mm 4 mps 758 mmHg 34%
01:00 +20°C° 0 mm 4 mps 758 mmHg 36%
02:00 +20°C° 0 mm 4 mps 758 mmHg 38%
03:00 +19°C° 0 mm 3 mps 758 mmHg 40%
04:00 +18°C° 0 mm 3 mps 759 mmHg 42%
05:00 +17°C° 0 mm 2 mps 759 mmHg 45%
06:00 +19°C° 0 mm 2 mps 760 mmHg 42%
07:00 +20°C° 0 mm 2 mps 760 mmHg 40%
08:00 +21°C° 0 mm 2 mps 761 mmHg 37%
09:00 +24°C° 0 mm 3 mps 761 mmHg 33%
10:00 +26°C° 0 mm 3 mps 761 mmHg 30%
11:00 +27°C° 0 mm 4 mps 761 mmHg 26%
12:00 +28°C° 0 mm 4 mps 761 mmHg 24%
13:00 +29°C° 0 mm 5 mps 760 mmHg 23%
14:00 +30°C° 0 mm 5 mps 760 mmHg 21%
15:00 +29°C° 0 mm 6 mps 760 mmHg 22%
16:00 +28°C° 0 mm 6 mps 760 mmHg 24%
17:00 +27°C° 0 mm 6 mps 760 mmHg 25%
18:00 +25°C° 0 mm 5 mps 760 mmHg 28%
19:00 +22°C° 0 mm 5 mps 760 mmHg 31%
20:00 +20°C° 0 mm 4 mps 761 mmHg 34%
21:00 +20°C° 0 mm 4 mps 761 mmHg 35%
22:00 +20°C° 0 mm 3 mps 761 mmHg 35%
23:00 +19°C° 0 mm 3 mps 761 mmHg 35%

21 April, Wednesday

Time Temperature Precipitation Wind Pressure Humidity
00:00 +19°C° 0 mm 3 mps 761 mmHg 33%
01:00 +19°C° 0 mm 3 mps 761 mmHg 31%
02:00 +19°C° 0 mm 3 mps 761 mmHg 29%
03:00 +18°C° 0 mm 3 mps 761 mmHg 29%
04:00 +18°C° 0 mm 3 mps 761 mmHg 30%
05:00 +18°C° 0 mm 3 mps 761 mmHg 30%
06:00 +18°C° 0 mm 3 mps 761 mmHg 29%
07:00 +19°C° 0 mm 3 mps 762 mmHg 29%
08:00 +19°C° 0 mm 4 mps 762 mmHg 28%
09:00 +20°C° 0 mm 4 mps 762 mmHg 28%
10:00 +21°C° 0 mm 4 mps 762 mmHg 29%
11:00 +22°C° 0 mm 4 mps 762 mmHg 29%
12:00 +21°C° 0 mm 4 mps 761 mmHg 29%
13:00 +21°C° 0 mm 4 mps 761 mmHg 30%
14:00 +21°C° 0 mm 4 mps 760 mmHg 30%
15:00 +20°C° 0 mm 4 mps 760 mmHg 33%
16:00 +19°C° 0 mm 3 mps 760 mmHg 37%
17:00 +19°C° 0 mm 3 mps 760 mmHg 41%
18:00 +18°C° 0 mm 3 mps 760 mmHg 43%
19:00 +18°C° 0 mm 3 mps 760 mmHg 46%
20:00 +17°C° 0 mm 2 mps 760 mmHg 49%
21:00 +17°C° 0 mm 2 mps 760 mmHg 49%
22:00 +17°C° 0 mm 2 mps 760 mmHg 49%
23:00 +16°C° 0 mm 1 mps 760 mmHg 49%

22 April, Thursday

Time Temperature Precipitation Wind Pressure Humidity
00:00 +16°C° 0 mm 1 mps 759 mmHg 49%
01:00 +16°C° 0 mm 1 mps 759 mmHg 48%
02:00 +16°C° 0 mm 1 mps 759 mmHg 48%
03:00 +15°C° 0 mm 1 mps 758 mmHg 51%
04:00 +15°C° 0 mm 1 mps 758 mmHg 53%
05:00 +14°C° 0 mm 1 mps 758 mmHg 56%
06:00 +15°C° 0 mm 1 mps 758 mmHg 56%
07:00 +15°C° 0 mm 1 mps 758 mmHg 56%
08:00 +15°C° 0 mm 1 mps 759 mmHg 57%
09:00 +16°C° 0 mm 1 mps 759 mmHg 53%
10:00 +17°C° 0 mm 2 mps 758 mmHg 49%
11:00 +18°C° 0 mm 2 mps 758 mmHg 45%
12:00 +19°C° 0 mm 2 mps 758 mmHg 42%
13:00 +20°C° 0 mm 2 mps 757 mmHg 39%
14:00 +23°C° 0 mm 2 mps 757 mmHg 36%
15:00 +22°C° 0 mm 3 mps 756 mmHg 36%
16:00 +22°C° 0 mm 3 mps 756 mmHg 37%
17:00 +24°C° 0 mm 3 mps 756 mmHg 37%
18:00 +21°C° 0 mm 3 mps 757 mmHg 44%
19:00 +19°C° 0 mm 3 mps 757 mmHg 52%
20:00 +17°C° 0 mm 4 mps 758 mmHg 59%
21:00 +16°C° 0 mm 3 mps 759 mmHg 65%
22:00 +14°C° 0 mm 3 mps 759 mmHg 71%
23:00 +13°C° 0 mm 3 mps 760 mmHg 77%
Show more